[[{"header":{"parameterUnit":"m.s-1","parameterCategory":1,"la1":30.2991,"la2":30.254,"lo1":-89.0895,"lo2":-89.0444,"dy":0.0017,"dx":0.0017,"nx":28,"ny":28,"refTime":"2023-09-18T21:00:00:Z","depth":0,"parameterNumber":2,"parameterNumberName":"U-component_of_WINDS"},"data":[0,0,0,0,0,0,0,0,0,0,0,0,0,0,0,0,0,0,0,0,0,0,0,0,0,0,0,0,0,0,0,0,0,0,0,0,0,0,0,0,0,0,0,0,0,0,0,0,0,0,0,0,0,0,0,0,0,0,-3.2283,-3.2285,0,-3.2432,-3.2433,-3.2435,-3.2438,-3.2437,-3.2435,-3.2433,-3.2581,-3.2586,-3.2592,0,0,0,0,0,0,0,0,0,0,0,0,0,-3.1999,-3.2005,-3.2283,-3.2285,-3.2287,-3.2432,-3.2434,-3.2436,-3.2439,-3.2437,-3.2434,-3.2432,-3.2579,-3.2585,-3.2592,0,0,0,0,0,0,0,0,0,0,0,0,0,-3.2133,-3.2006,-3.2283,-3.2306,-3.231,-3.2431,-3.2434,-3.2436,-3.2439,-3.2437,-3.2434,-3.2431,-3.2577,-3.2585,-3.2593,-3.27,0,0,-3.2619,-3.2622,0,0,0,0,0,0,0,0,-3.2125,-3.2143,-3.2301,-3.2305,-3.2309,-3.2414,-3.2388,-3.2524,-3.244,-3.239,-3.2433,-3.243,-3.2527,-3.2539,-3.2573,-3.2707,-3.2713,-3.262,-3.2625,-3.2628,-3.2631,0,0,0,0,0,0,0,-3.2116,-3.2137,-3.2342,-3.2303,-3.2308,-3.2308,-3.2324,-3.2414,-3.2472,-3.2394,-3.2395,-3.2412,-3.2529,-3.2565,-3.2577,-3.2715,-3.2619,-3.2627,-3.2632,-3.2635,-3.2946,-3.2949,0,0,0,0,0,0,-3.2102,-3.2129,-3.2337,-3.2346,-3.2208,-3.2315,-3.2333,-3.2383,-3.2471,-3.2482,-3.2415,-3.2412,-3.2552,-3.2567,-3.2582,-3.2713,-3.2628,-3.2636,-3.2641,-3.2943,-3.2947,-3.295,0,0,0,0,0,0,-3.2096,-3.2121,-3.2331,-3.2238,-3.2265,-3.2323,-3.2379,-3.2387,-3.2423,-3.2487,-3.2497,-3.2441,-3.255,-3.257,-3.2671,-3.2718,-3.264,-3.2648,-3.2939,-3.2944,-3.2948,-3.2975,0,0,0,0,0,0,-3.2088,-3.2119,-3.216,-3.2239,-3.227,-3.2418,-3.2382,-3.2392,-3.2439,-3.2437,-3.2514,-3.2524,-3.255,-3.2659,-3.268,-3.2728,-3.2654,-3.2935,-3.2941,-3.2947,-3.297,-3.298,-3.2989,0,0,0,0,0,-3.2078,-3.216,-3.2162,-3.2187,-3.2323,-3.2421,-3.2439,-3.2468,-3.2442,-3.2484,-3.2525,-3.2522,-3.271,-3.2669,-3.2693,-3.2744,-3.2932,-3.2939,-3.2946,-3.2966,-3.2978,-3.2989,0,0,0,0,0,0,-3.2083,-3.2171,-3.2174,-3.2284,-3.2346,-3.2421,-3.2475,-3.2479,-3.2547,-3.2542,-3.2575,-3.2592,-3.2693,-3.2729,-3.2682,-3.2853,-3.2818,-3.283,-3.2825,-3.2837,-3.2846,-3.2834,-3.2661,0,0,0,0,0,-3.2097,-3.2171,-3.2244,-3.2334,-3.2365,-3.2415,-3.2459,-3.2477,-3.254,-3.2566,-3.2614,-3.2675,-3.2748,-3.2795,-3.2866,-3.2977,-3.2994,-3.3025,-3.3034,-3.3041,-3.305,-3.3112,-3.3127,-3.2974,-3.2974,-3.2973,0,0,-3.2127,-3.2184,-3.2228,-3.2337,-3.2386,-3.2461,-3.2436,-3.2516,-3.2571,-3.2577,-3.2676,-3.2714,-3.2785,-3.2891,-3.2941,-3.2925,-3.3097,-3.3051,-3.3056,-3.3061,-3.3121,-3.3136,-3.3148,-3.2978,-3.2978,-3.2977,0,0,-3.2218,-3.227,-3.2351,-3.2402,-3.2478,-3.2512,-3.2531,-3.2608,-3.2634,-3.2735,-3.2741,-3.2808,-3.2933,-3.2983,-3.3025,-3.314,-3.3139,-3.3163,-3.3209,-3.3269,-3.3281,-3.3292,-3.3332,-3.3346,-3.3172,-3.3172,-3.3172,0,-3.2243,-3.2357,-3.2391,-3.2472,-3.2519,-3.2532,-3.2614,-3.2662,-3.2756,-3.2789,-3.2771,-3.293,-3.2978,-3.3097,-3.3126,-3.316,-3.3182,-3.3152,-3.3277,-3.3289,-3.3299,-3.3337,-3.3352,-3.3175,-3.3174,-3.3174,-3.3174,0,-3.2385,-3.2465,-3.2521,-3.2615,-3.2669,-3.275,-3.2796,-3.2847,-3.2862,-3.2897,-3.3,-3.3059,-3.3142,-3.3173,-3.3187,-3.3295,-3.3282,-3.3271,-3.3235,-3.3315,-3.3352,-3.3367,-3.3178,-3.3177,-3.3176,-3.3176,0,0,-3.2478,-3.2594,-3.2613,-3.2657,-3.2744,-3.2805,-3.2888,-3.2972,-3.3015,-3.3081,-3.315,-3.3258,-3.3249,-3.3297,-3.3317,-3.337,-3.3457,-3.3352,-3.3354,-3.3368,-3.3579,-3.3585,-3.3602,-3.3459,-3.3462,-3.3465,-3.3573,0,-3.2577,-3.2725,-3.276,-3.2886,-3.2959,-3.2974,-3.3046,-3.3107,-3.3144,-3.3211,-3.3251,-3.3327,-3.3309,-3.3338,-3.3392,-3.3435,-3.3499,-3.3428,-3.3522,-3.3525,-3.35,-3.3621,-3.3627,-3.3726,-3.3587,-3.359,-3.3592,0,-3.2711,-3.2783,-3.2917,-3.2997,-3.3029,-3.3093,-3.3174,-3.3239,-3.3309,-3.3332,-3.3388,-3.3403,-3.3489,-3.3454,-3.3572,-3.3523,-3.3564,-3.3592,-3.3596,-3.3603,-3.356,-3.3629,-3.3758,-3.3772,-3.3615,-3.3613,-3.3611,0,-3.2763,-3.2894,-3.2991,-3.3028,-3.3124,-3.3169,-3.3211,-3.3279,-3.3328,-3.3399,-3.3431,-3.3511,-3.3553,-3.3615,-3.3652,-3.3622,-3.3767,-3.3734,-3.3787,-3.3786,-3.3813,-3.381,-3.3949,-3.3845,-3.3845,-3.3845,-3.3844,0,-3.2868,-3.2949,-3.3016,-3.3075,-3.3167,-3.3207,-3.3296,-3.3338,-3.34,-3.3467,-3.3486,-3.3549,-3.3596,-3.3665,-3.3695,-3.3788,-3.3808,-3.3828,-3.3834,-3.3824,-3.3822,-3.3849,-3.3842,-3.3849,-3.3848,-3.3847,-3.3846,0,-3.2939,-3.2988,-3.3095,-3.3179,-3.3202,-3.3266,-3.3337,-3.3395,-3.3435,-3.352,-3.3542,-3.3603,-3.3686,-3.373,-3.3834,-3.3854,-3.3958,-3.3962,-3.3934,-3.3936,-3.3986,-3.398,-3.4144,-3.4167,-3.4051,-3.4052,-3.4053,0,-3.3001,-3.3064,-3.3156,-3.3204,-3.3247,-3.3323,-3.3375,-3.3418,-3.347,-3.3558,-3.3605,-3.369,-3.3759,-3.3892,-3.3944,-3.4024,-3.4028,-3.408,-3.4039,-3.4028,-3.4026,-3.4021,-3.4027,-3.4086,-3.4087,-3.4088,-3.4088,0,-3.3105,-3.3127,-3.3201,-3.3284,-3.3346,-3.3413,-3.3479,-3.3517,-3.3571,-3.3629,-3.3715,-3.377,-3.3877,-3.3961,-3.4045,-3.4088,-3.4097,-3.4102,-3.4118,-3.4106,-3.4087,-3.4096,-3.3951,-3.4097,-3.4096,-3.4095,-3.4095,-3.4094,-3.3172,-3.3229,-3.3304,-3.3386,-3.3441,-3.3504,-3.3563,-3.3611,-3.3684,-3.3776,-3.3798,-3.3889,-3.396,-3.4075,-3.4121,-3.4192,-3.4181,-3.4205,-3.421,-3.4215,-3.4216,-3.4079,-3.4208,-3.4208,-3.4207,-3.4207,-3.4207,0,-3.3275,-3.3325,-3.3401,-3.3494,-3.3559,-3.3566,-3.3641,-3.3694,-3.3774,-3.3841,-3.3911,-3.4011,-3.4093,-3.4154,-3.4238,-3.4283,-3.429,-3.4304,-3.4299,-3.4308,-3.4221,-3.4198,-3.4297,-3.4297,-3.4297,-3.4297,-3.4297,-3.4297,-3.3336,-3.3433,-3.3465,-3.359,-3.3639,-3.3729,-3.3771,-3.3829,-3.3883,-3.3994,-3.4064,-3.4104,-3.4169,-3.4258,-3.4334,-3.435,-3.4379,-3.4392,-3.4408,-3.4324,-3.4314,-3.4305,-3.4283,-3.4399,-3.4399,-3.4489,-3.449,-3.449]},{"header":{"parameterUnit":"m.s-1","parameterCategory":1,"la1":30.2991,"la2":30.254,"lo1":-89.0895,"lo2":-89.0444,"dy":0.0017,"dx":0.0017,"nx":28,"ny":28,"refTime":"2023-09-18T21:00:00:Z","depth":0,"parameterNumber":3,"parameterNumberName":"V-component_of_WINDS"},"data":[0,0,0,0,0,0,0,0,0,0,0,0,0,0,0,0,0,0,0,0,0,0,0,0,0,0,0,0,0,0,0,0,0,0,0,0,0,0,0,0,0,0,0,0,0,0,0,0,0,0,0,0,0,0,0,0,0,0,-1.3199,-1.3198,0,-1.3166,-1.3166,-1.3166,-1.3171,-1.3172,-1.3172,-1.3173,-1.3137,-1.3136,-1.3134,0,0,0,0,0,0,0,0,0,0,0,0,0,-1.3261,-1.326,-1.3199,-1.3198,-1.3198,-1.3166,-1.3166,-1.3165,-1.3171,-1.3172,-1.3173,-1.3173,-1.3138,-1.3136,-1.3134,0,0,0,0,0,0,0,0,0,0,0,0,0,-1.3232,-1.3259,-1.3199,-1.3197,-1.3196,-1.3166,-1.3166,-1.3165,-1.3171,-1.3172,-1.3173,-1.3173,-1.3138,-1.3136,-1.3134,-1.3103,0,0,-1.3127,-1.3126,0,0,0,0,0,0,0,0,-1.3233,-1.3229,-1.3198,-1.3197,-1.3196,-1.3174,-1.3175,-1.3144,-1.3171,-1.3181,-1.3173,-1.3174,-1.3148,-1.3145,-1.3137,-1.3101,-1.3099,-1.3127,-1.3125,-1.3124,-1.3124,0,0,0,0,0,0,0,-1.3235,-1.3231,-1.3186,-1.3197,-1.3196,-1.3196,-1.3193,-1.3169,-1.316,-1.318,-1.318,-1.3176,-1.3148,-1.3139,-1.3136,-1.3099,-1.3127,-1.3125,-1.3123,-1.3123,-1.3032,-1.3031,0,0,0,0,0,0,-1.3238,-1.3232,-1.3187,-1.3185,-1.3217,-1.3194,-1.3191,-1.318,-1.316,-1.3158,-1.3176,-1.3177,-1.3143,-1.3139,-1.3135,-1.3096,-1.3124,-1.3122,-1.3121,-1.3033,-1.3032,-1.3031,0,0,0,0,0,0,-1.324,-1.3234,-1.3188,-1.3209,-1.3203,-1.3192,-1.318,-1.3179,-1.317,-1.3157,-1.3155,-1.3169,-1.3143,-1.3138,-1.311,-1.3095,-1.3121,-1.3119,-1.3035,-1.3033,-1.3031,-1.3017,0,0,0,0,0,0,-1.3241,-1.3235,-1.3224,-1.3208,-1.3202,-1.3165,-1.3179,-1.3178,-1.3167,-1.3168,-1.315,-1.3148,-1.3144,-1.3114,-1.3108,-1.3092,-1.3118,-1.3036,-1.3034,-1.3032,-1.3019,-1.3015,-1.3012,0,0,0,0,0,-1.3244,-1.3221,-1.3223,-1.3218,-1.3188,-1.3164,-1.316,-1.3156,-1.3166,-1.3154,-1.3145,-1.3148,-1.3097,-1.3111,-1.3104,-1.3087,-1.3037,-1.3034,-1.3032,-1.3021,-1.3016,-1.3012,0,0,0,0,0,0,-1.3235,-1.3219,-1.3221,-1.3194,-1.318,-1.3165,-1.315,-1.3152,-1.3135,-1.3137,-1.3132,-1.3128,-1.3099,-1.309,-1.3106,-1.3055,-1.3068,-1.3064,-1.3061,-1.3057,-1.3054,-1.3056,-1.3116,0,0,0,0,0,-1.323,-1.3213,-1.32,-1.3176,-1.3169,-1.3161,-1.315,-1.3148,-1.3134,-1.3128,-1.3117,-1.3102,-1.3082,-1.3069,-1.3051,-1.3018,-1.3013,-1.3003,-1.2999,-1.2997,-1.2993,-1.2973,-1.2968,-1.3023,-1.3023,-1.3023,0,0,-1.3219,-1.3208,-1.3198,-1.3174,-1.3163,-1.3144,-1.3156,-1.3136,-1.3121,-1.3125,-1.3097,-1.3088,-1.3071,-1.304,-1.3025,-1.3032,-1.2977,-1.2994,-1.2992,-1.299,-1.297,-1.2965,-1.296,-1.3021,-1.3022,-1.3022,0,0,-1.3189,-1.318,-1.3159,-1.3147,-1.3131,-1.3125,-1.312,-1.3104,-1.3099,-1.3071,-1.3073,-1.3054,-1.3021,-1.3008,-1.2997,-1.2959,-1.2961,-1.2953,-1.2935,-1.2915,-1.2911,-1.2907,-1.2892,-1.2886,-1.295,-1.295,-1.295,0,-1.3177,-1.315,-1.3147,-1.3126,-1.3114,-1.3117,-1.3094,-1.3083,-1.3061,-1.3052,-1.306,-1.3017,-1.3005,-1.297,-1.296,-1.2952,-1.2944,-1.2955,-1.2912,-1.2908,-1.2904,-1.2889,-1.2884,-1.2949,-1.2949,-1.2949,-1.2949,0,-1.3135,-1.3116,-1.31,-1.3079,-1.3066,-1.3044,-1.3036,-1.3022,-1.3021,-1.3014,-1.2984,-1.297,-1.2948,-1.2939,-1.2938,-1.2903,-1.2907,-1.2913,-1.2926,-1.2898,-1.2884,-1.2878,-1.2948,-1.2948,-1.2948,-1.2948,0,0,-1.31,-1.3076,-1.307,-1.306,-1.3041,-1.3025,-1.3002,-1.2981,-1.2968,-1.2952,-1.2931,-1.2902,-1.2907,-1.2894,-1.2891,-1.2874,-1.2842,-1.2882,-1.2881,-1.2874,-1.28,-1.2795,-1.2788,-1.2844,-1.2843,-1.2842,-1.2801,0,-1.3067,-1.3028,-1.3024,-1.2988,-1.2968,-1.2969,-1.2949,-1.2934,-1.2926,-1.2907,-1.2898,-1.2877,-1.2886,-1.2878,-1.2861,-1.285,-1.2827,-1.2853,-1.2822,-1.2821,-1.2826,-1.2781,-1.2776,-1.2738,-1.2796,-1.2795,-1.2794,0,-1.3024,-1.3007,-1.2969,-1.2951,-1.2943,-1.2925,-1.2903,-1.2886,-1.2868,-1.2863,-1.2848,-1.2846,-1.282,-1.2835,-1.2798,-1.2815,-1.2802,-1.2794,-1.2793,-1.2789,-1.2806,-1.2775,-1.2727,-1.272,-1.2786,-1.2786,-1.2787,0,-1.3,-1.2967,-1.294,-1.2931,-1.291,-1.2896,-1.2887,-1.287,-1.2856,-1.2837,-1.2828,-1.2805,-1.2793,-1.2775,-1.2766,-1.2778,-1.2729,-1.2743,-1.2722,-1.2722,-1.2712,-1.2712,-1.2659,-1.2705,-1.2705,-1.2705,-1.2706,0,-1.2963,-1.294,-1.2929,-1.2912,-1.2884,-1.2879,-1.2851,-1.2842,-1.2826,-1.2806,-1.2806,-1.2786,-1.2777,-1.2756,-1.2749,-1.2718,-1.2713,-1.2706,-1.2705,-1.2706,-1.2706,-1.2697,-1.2699,-1.2704,-1.2704,-1.2705,-1.2705,0,-1.2932,-1.2924,-1.2894,-1.2875,-1.287,-1.2851,-1.2834,-1.2816,-1.2808,-1.2782,-1.2776,-1.2762,-1.2737,-1.2727,-1.2696,-1.2691,-1.2654,-1.2656,-1.2661,-1.266,-1.2639,-1.2641,-1.2577,-1.2567,-1.2621,-1.2621,-1.262,0,-1.2909,-1.289,-1.287,-1.2857,-1.2846,-1.2825,-1.2811,-1.2804,-1.2789,-1.2766,-1.2751,-1.2725,-1.2705,-1.2664,-1.265,-1.2625,-1.2625,-1.2604,-1.2621,-1.2622,-1.2622,-1.2623,-1.262,-1.2601,-1.26,-1.26,-1.2599,0,-1.2868,-1.2864,-1.2845,-1.2823,-1.2806,-1.2788,-1.2771,-1.276,-1.275,-1.2732,-1.2707,-1.2691,-1.2658,-1.2632,-1.2606,-1.2594,-1.2594,-1.2594,-1.2588,-1.2588,-1.2591,-1.2588,-1.2651,-1.2595,-1.2596,-1.2596,-1.2596,-1.2596,-1.2839,-1.2822,-1.2804,-1.2781,-1.2768,-1.2751,-1.2733,-1.2722,-1.2701,-1.2674,-1.2671,-1.2642,-1.2622,-1.2588,-1.2575,-1.2551,-1.2556,-1.2547,-1.2545,-1.2543,-1.254,-1.2596,-1.2546,-1.2546,-1.2546,-1.2547,-1.2547,0,-1.2796,-1.2785,-1.2764,-1.274,-1.2721,-1.2723,-1.2704,-1.2688,-1.2663,-1.2645,-1.2624,-1.2593,-1.2567,-1.2551,-1.2524,-1.2508,-1.2507,-1.2501,-1.2502,-1.2498,-1.2538,-1.2545,-1.2502,-1.2502,-1.2502,-1.2502,-1.2502,-1.2502,-1.2772,-1.2743,-1.2737,-1.2699,-1.2688,-1.266,-1.2649,-1.2632,-1.2617,-1.2583,-1.2562,-1.2551,-1.2533,-1.2505,-1.248,-1.2476,-1.2465,-1.2459,-1.2454,-1.2491,-1.2496,-1.25,-1.2507,-1.2457,-1.2457,-1.2417,-1.2416,-1.2416]}]]